This is the latest recevied weather packets stored in our database for station/object 9M4RBN-3. If no packets are shown the sender has not sent any weather packets the latest 1 day(s).
| Time | Temp. | Humidity | Pressure | Rain* | Wind** | Luminosity | Snow |
|---|---|---|---|---|---|---|---|
| 1777855900 | 26.11° C | 68% | 1016.6 hPa | - | - | - | - |
| 1777854997 | 25.56° C | 65% | 1016.3 hPa | - | - | - | - |
| 1777854097 | 25.56° C | 62% | 1016 hPa | - | - | - | - |
| 1777853197 | 25° C | 57% | 1015.9 hPa | - | - | - | - |
| 1777852297 | 25.56° C | 70% | 1015.8 hPa | - | - | - | - |
| 1777851397 | 25° C | 69% | 1015.5 hPa | - | - | - | - |
| 1777850497 | 24.44° C | 60% | 1015.1 hPa | - | - | - | - |
| 1777849597 | 24.44° C | 48% | 1015.2 hPa | - | - | - | - |
| 1777848697 | 25° C | 51% | 1014.8 hPa | - | - | - | - |
| 1777847797 | 25.56° C | 62% | 1014.8 hPa | - | - | - | - |
| 1777846897 | 25.56° C | 69% | 1014.8 hPa | - | - | - | - |
| 1777845997 | 24.44° C | 64% | 1014.6 hPa | - | - | - | - |
| 1777845096 | 24.44° C | 46% | 1014.3 hPa | - | - | - | - |
| 1777844196 | 24.44° C | 46% | 1014.1 hPa | - | - | - | - |
| 1777843297 | 24.44° C | 46% | 1014.2 hPa | - | - | - | - |
| 1777842396 | 25° C | 45% | 1014.2 hPa | - | - | - | - |
| 1777841496 | 25.56° C | 46% | 1014.5 hPa | - | - | - | - |
| 1777840596 | 26.11° C | 49% | 1014.5 hPa | - | - | - | - |
| 1777839696 | 27.22° C | 58% | 1014.3 hPa | - | - | - | - |
| 1777838796 | 27.22° C | 70% | 1014.4 hPa | - | - | - | - |
| 1777837896 | 27.22° C | 70% | 1014.5 hPa | - | - | - | - |
| 1777836996 | 27.78° C | 70% | 1014.5 hPa | - | - | - | - |
| 1777836096 | 27.22° C | 70% | 1014.7 hPa | - | - | - | - |
* Rain since midnight (hover to see other rain measurements)
** Current wind speed in m/s (hover to see current wind gust speed)